EW1979 Weather Reports


time (UTC)temp
C
wind
direction
speed
KPH
gust
KPH
rain 1hr
cm
rain 24hr
cm
rain mn
cm
humidity
%
barometer
mb
20260508004502 16 30 0.0 0.0 0.00 0.00 0.00 74 1011.1
20260508003122 16 57 0.0 0.0 0.00 0.00 0.00 73 1010.9
20260508001616 17 314 0.0 0.0 0.00 0.00 0.00 71 1011.4
20260508000135 17 90 0.0 0.0 0.00 0.00 0.00 70 1009.0
20260507234503 17 105 0.0 0.0 0.00 0.00 0.00 71 1010.8
20260507233008 17 66 0.0 0.0 0.00 0.00 0.00 71 1011.7
20260507230016 17 60 0.0 0.0 0.00 0.00 0.00 70 1012.8
20260507224602 18 65 0.0 0.0 0.00 0.00 0.00 68 1012.6
20260507223105 18 88 0.0 0.0 0.00 0.00 0.00 69 1012.6
20260507221507 18 12 0.0 0.0 0.00 0.00 0.00 70 1012.7
20260507214603 18 49 0.0 0.0 0.00 0.00 0.00 70 1012.7
20260507213006 17 79 0.0 0.0 0.00 0.00 0.00 74 1012.8
20260507211503 18 11 0.0 0.0 0.00 0.00 0.00 71 1013.4
20260507210004 18 22 0.0 0.0 0.00 0.00 0.00 70 1013.4
20260507204503 17 64 0.0 0.0 0.00 0.00 0.00 74 1013.2
20260507201508 17 49 0.0 0.0 0.00 0.00 0.00 73 1013.2
20260507200007 17 5 0.0 0.0 0.00 0.00 0.00 75 1013.1
20260507194502 16 16 0.0 0.0 0.00 0.00 0.00 75 1012.9
20260507193102 16 23 0.0 0.0 0.00 0.00 0.00 75 1013.7
20260507191507 15 5 0.0 0.0 0.00 0.00 0.00 74 1014.5
20260507190004 15 360 0.0 0.0 0.00 0.00 0.00 72 1014.3
20260507184604 14 360 0.0 0.0 0.00 0.00 0.00 66 1014.8
20260507183103 14 360 0.0 0.0 0.00 0.00 0.00 65 1015.0
20260507181607 13 327 0.0 0.0 0.00 0.00 0.00 66 1014.4
20260507173014 14 27 0.0 0.0 0.00 0.00 0.00 74 1015.3
20260507170008 13 5 0.0 0.0 0.00 0.00 0.00 73 1015.0
20260507163102 13 22 0.0 0.0 0.00 0.00 0.00 72 1015.5
20260507154504 13 355 0.0 0.0 0.00 0.00 0.00 56 1014.9
20260507153114 13 37 0.0 0.0 0.00 0.00 0.00 47 1015.0
20260507150007 12 355 0.0 0.0 0.00 0.00 0.00 30 1015.6
20260507144505 12 14 0.0 0.0 0.00 0.00 0.00 26 1015.7
20260507143008 12 13 0.0 0.0 0.00 0.00 0.00 28 1015.4
20260507141502 12 24 0.0 0.0 0.00 0.00 0.00 29 1015.4
20260507140002 12 5 0.0 0.0 0.00 0.00 0.00 31 1015.2
20260507134502 12 5 0.0 0.0 0.00 0.00 0.00 36 1015.5
20260507133103 13 341 0.0 0.0 0.00 0.00 0.00 40 1015.1
20260507131503 13 360 0.0 0.0 0.00 0.00 0.00 45 1015.2
20260507130008 13 5 0.0 0.0 0.00 0.00 0.00 50 1015.3
20260507124621 13 11 0.0 0.0 0.00 0.00 0.00 55 1014.2
20260507123110 13 5 0.0 0.0 0.00 0.00 0.00 60 1014.2
20260507121506 13 11 0.0 0.0 0.00 0.00 0.00 62 1014.2
20260507111507 13 5 0.0 0.0 0.00 0.00 0.00 68 1013.3
20260507110003 13 16 0.0 0.0 0.00 0.00 0.00 68 1013.0
20260507104605 14 5 0.0 0.0 0.00 0.00 0.00 68 1012.5
20260507103115 14 15 0.0 0.0 0.00 0.00 0.00 67 1012.6
20260507101503 14 11 0.0 0.0 0.00 0.00 0.00 68 1012.6
20260507093003 15 9 0.0 0.0 0.00 0.00 0.00 65 1012.1
20260507091509 15 5 0.0 0.0 0.00 0.00 0.00 65 1012.1
20260507084603 15 9 0.0 0.0 0.00 0.00 0.00 63 1011.3
20260507081504 15 11 0.0 0.0 0.00 0.00 0.00 60 1011.6
20260507080007 15 11 0.0 0.0 0.00 0.00 0.00 59 1011.9
20260507074507 15 11 0.0 0.0 0.00 0.00 0.00 59 1011.7
20260507071516 15 5 0.0 0.0 0.00 0.00 0.00 61 1011.4
20260507070008 15 5 0.0 0.0 0.00 0.00 0.00 62 1011.5
20260507061603 15 5 0.0 0.0 0.00 0.00 0.00 66 1011.2
20260507054503 15 5 0.0 0.0 0.00 0.00 0.00 67 1010.9
20260507053003 15 5 0.0 0.0 0.00 0.00 0.00 65 1011.0
20260507051508 15 5 0.0 0.0 0.00 0.00 0.00 64 1010.7
20260507044604 15 5 0.0 0.0 0.00 0.00 0.00 63 1011.5
20260507043003 15 16 0.0 0.0 0.00 0.00 0.00 63 1011.5
20260507041602 15 5 0.0 0.0 0.00 0.00 0.00 62 1011.5
20260507034502 15 15 0.0 0.0 0.00 0.00 0.00 59 1011.0
20260507033003 15 5 0.0 0.0 0.00 0.00 0.00 60 1010.9
20260507031503 15 5 0.0 0.0 0.00 0.00 0.00 62 1010.7
20260507030006 15 360 0.0 0.0 0.00 0.00 0.00 63 1010.6
20260507024632 15 360 0.0 0.0 0.00 0.00 0.00 64 1010.7
20260507023004 15 355 0.0 0.0 0.00 0.00 0.00 65 1010.5
20260507021603 15 5 0.0 0.0 0.00 0.00 0.00 65 1010.4
20260507020004 15 360 0.0 0.0 0.00 0.00 0.00 65 1010.2
20260507014508 15 5 0.0 0.0 0.00 0.00 0.00 66 1009.8
20260507013103 15 9 0.0 0.0 0.00 0.00 0.00 67 1009.7
20260507011604 15 360 0.0 0.0 0.00 0.00 0.00 68 1009.3